Location: St Paul
(33.4390°N, 83.7350°W)
Time: 04:21:31
(UTC-04:00)

FengYun 1-2 T - Pass Details

Date: 06 October 2017
Orbit: 846 x 882 km, 98.8° (Epoch: 21 October)

Event Time Altitude Azimuth Distance (km) Brightness Sun altitude
Rises 20:51:07 0° 172° (S) 3,436 7.2 -21.4°
Reaches altitude 10° 20:53:31 10° 174° (S) 2,497 6.5 -21.9°
Maximum altitude 20:59:02 69° 258° (WSW) 915 4.5 -23.0°
Drops below altitude 10° 21:04:33 10° 342° (NNW) 2,488 7.0 -24.2°
Sets 21:06:56 0° 344° (NNW) 3,423 7.7 -24.7°
